Tracking 18624 objects as of 30-April-2017
HD Live streaming from Space Station
objects crossing your sky now

RADIO 6


10-day predictions
RADIO 6 is classified as:


NORAD ID: 13002
Int'l Code: 1981-120F
Launch date: December 17, 1981
Source: Commonwealth of Independent States (former USSR) (CIS)
Launch site: PLESETSK MISSILE AND SPACE COMPLEX (PKMTR)
Uplink (MHz):
Downlink (MHz):
Beacon (MHz):
Mode:
Call sign:
Status:

Your satellite tracking list
Your tracking list is empty





NASA's NSSDC Master Catalog

Two Line Element Set (TLE):
1 13002U 81120F   17119.96716764 -.00000026 +00000-0 -37437-3 0  9990
2 13002 082.9606 342.6805 0051269 166.2035 325.1861 12.13790564566824
Source of the keplerian elements: AFSPC